Weather History for Wildwood, NJ

Change the Weather History Date:

Sunday, February 3, 2013

  Actual Average Record
Temperature  
Mean Temperature -2 °C -  
Max Temperature 1 °C 3 °C 17 °C (2006)
Min Temperature -4 °C -2 °C -8 °C (2000)
Degree Days  
Heating Degree Days 36    
Moisture  
Dew Point -5 °C    
Average Humidity 76    
Maximum Humidity 93    
Minimum Humidity 60    
Precipitation  
Precipitation 0.00 mm - - ()
Sea Level Pressure  
Sea Level Pressure 1012 hPa    
Wind  
Wind Speed 6 km/h (NW)    
Max Wind Speed 24 km/h    
Max Gust Speed 32 km/h    
Visibility 16 kilometers    
Events      
Averages and records for this station are not official NWS values.
T = Trace of Precipitation, MM = Missing Value Source: NWS Daily Summary

Daily Weather History Graph

Daily Weather History Graph

Search for Another Location

Airport:

Trip Planner

Search our weather history database for the weather conditions in past years. The results will help you decide how hot, cold, wet, or windy it might be!

Date:

Astronomy

Feb. 03, 2013 Rise Set
Actual Time 7:04 AM EST 5:23 PM EST
Civil Twilight 6:35 AM EST 5:51 PM EST
Nautical Twilight 6:04 AM EST 6:23 PM EST
Astronomical Twilight 5:32 AM EST 6:54 PM EST
Moon 12:28 AM EST (2/3) 10:59 AM EST (2/3)
Length of Visible Light 11h 15m
Length of Day
10h 19m
Waning Gibbous, 49% of the Moon is Illuminated
Feb 3
Waning Gibbous
Feb 10
New
Feb 17
First Quarter
Feb 25
Full
Mar 4
Last Quarter

Hourly Weather History & Observations

Time (EST) Temp. Windchill Dew Point Humidity Pressure Visibility Wind Dir Wind Speed Gust Speed Precip Events Conditions
12:15 AM -2.0 °C - -4.0 °C 86% 1017.5 hPa - Calm Calm - N/A   Unknown
12:35 AM -2.0 °C - -4.0 °C 86% 1016.8 hPa - Calm Calm - N/A   Unknown
12:55 AM -2.0 °C - -4.0 °C 86% 1016.5 hPa - Calm Calm - N/A   Unknown
1:15 AM -2.0 °C - -4.0 °C 86% 1016.1 hPa - Calm Calm - N/A   Mostly Cloudy
1:35 AM -2.0 °C - -4.0 °C 86% 1015.8 hPa - Calm Calm - N/A   Overcast
1:55 AM -2.0 °C -4.9 °C -4.0 °C 86% 1015.8 hPa - NW 7.4 km/h / 2.1 m/s - N/A   Unknown
2:15 AM -3.0 °C -5.2 °C -5.0 °C 86% 1015.5 hPa - North 5.6 km/h / 1.5 m/s - N/A   Unknown
2:35 AM -3.0 °C - -4.0 °C 93% 1015.1 hPa - Calm Calm - N/A   Mostly Cloudy
2:55 AM -3.0 °C - -4.0 °C 93% 1014.8 hPa - Calm Calm - N/A   Unknown
3:15 AM -3.0 °C - -5.0 °C 86% 1014.4 hPa - Calm Calm - N/A   Mostly Cloudy
3:35 AM -4.0 °C - -6.0 °C 86% 1014.1 hPa - Calm Calm - N/A   Unknown
3:55 AM -3.0 °C - -5.0 °C 86% 1013.8 hPa - Calm Calm - N/A   Unknown
4:15 AM -4.0 °C - -6.0 °C 86% 1013.4 hPa - Calm Calm - N/A   Mostly Cloudy
4:55 AM -4.0 °C -6.4 °C -6.0 °C 86% 1013.4 hPa - North 5.6 km/h / 1.5 m/s - N/A   Overcast
5:15 AM -3.0 °C -5.2 °C -4.0 °C 93% 1013.8 hPa - North 5.6 km/h / 1.5 m/s - N/A   Overcast
5:35 AM -2.0 °C -6.0 °C -4.0 °C 86% 1013.4 hPa - North 11.1 km/h / 3.1 m/s - N/A   Unknown
5:55 AM -2.0 °C -5.5 °C -4.0 °C 86% 1013.4 hPa - North 9.3 km/h / 2.6 m/s - N/A   Mostly Cloudy
6:15 AM -3.0 °C -6.0 °C -4.0 °C 93% 1013.4 hPa - North 7.4 km/h / 2.1 m/s - N/A   Unknown
6:35 AM -3.0 °C -6.0 °C -4.0 °C 93% 1013.8 hPa - North 7.4 km/h / 2.1 m/s - N/A   Overcast
6:55 AM -3.0 °C -6.0 °C -4.0 °C 93% 1013.8 hPa - North 7.4 km/h / 2.1 m/s - N/A   Overcast
7:15 AM -3.0 °C -6.7 °C -5.0 °C 86% 1013.8 hPa - North 9.3 km/h / 2.6 m/s - N/A   Overcast
7:35 AM -3.0 °C -6.7 °C -5.0 °C 86% 1014.1 hPa 16.1 km North 9.3 km/h / 2.6 m/s - N/A   Overcast
7:55 AM -3.0 °C -6.7 °C -5.0 °C 86% 1013.8 hPa 16.1 km North 9.3 km/h / 2.6 m/s - N/A   Partly Cloudy
8:15 AM -3.0 °C -6.0 °C -5.0 °C 86% 1013.8 hPa 16.1 km North 7.4 km/h / 2.1 m/s - N/A   Partly Cloudy
8:35 AM -3.0 °C -6.7 °C -5.0 °C 86% 1014.1 hPa 16.1 km North 9.3 km/h / 2.6 m/s - N/A   Partly Cloudy
8:55 AM -3.0 °C -7.2 °C -6.0 °C 80% 1013.8 hPa 16.1 km North 11.1 km/h / 3.1 m/s - N/A   Clear
9:15 AM -3.0 °C -6.0 °C -6.0 °C 80% 1013.8 hPa 16.1 km North 7.4 km/h / 2.1 m/s - N/A   Clear
9:35 AM -3.0 °C -7.2 °C -6.0 °C 80% 1013.8 hPa 16.1 km North 11.1 km/h / 3.1 m/s - N/A   Clear
9:55 AM -2.0 °C -6.0 °C -6.0 °C 74% 1013.4 hPa 16.1 km North 11.1 km/h / 3.1 m/s - N/A   Clear
10:15 AM -2.0 °C -6.8 °C -6.0 °C 74% 1013.4 hPa 16.1 km North 14.8 km/h / 4.1 m/s - N/A   Scattered Clouds
10:35 AM -2.0 °C -7.2 °C -7.0 °C 69% 1013.4 hPa 16.1 km North 16.7 km/h / 4.6 m/s - N/A   Scattered Clouds
10:55 AM -2.0 °C -6.4 °C -6.0 °C 74% 1013.1 hPa 16.1 km North 13.0 km/h / 3.6 m/s - N/A   Partly Cloudy
11:15 AM -2.0 °C -6.0 °C -6.0 °C 74% 1012.8 hPa 16.1 km North 11.1 km/h / 3.1 m/s - N/A   Scattered Clouds
11:35 AM -2.0 °C -6.0 °C -6.0 °C 74% 1012.4 hPa 16.1 km North 11.1 km/h / 3.1 m/s - N/A   Partly Cloudy
11:55 AM -1.0 °C -4.3 °C -6.0 °C 69% 1012.1 hPa - North 9.3 km/h / 2.6 m/s - N/A   Partly Cloudy
12:15 PM -1.0 °C -4.3 °C -6.0 °C 69% 1011.4 hPa - North 9.3 km/h / 2.6 m/s - N/A   Clear
12:35 PM -1.0 °C -4.3 °C -6.0 °C 69% 1011.1 hPa - North 9.3 km/h / 2.6 m/s - N/A   Clear
12:55 PM 0.0 °C -5.0 °C -6.0 °C 64% 1011.4 hPa - West 18.5 km/h / 5.1 m/s - N/A   Clear
1:15 PM -1.0 °C -4.8 °C -6.0 °C 69% 1011.1 hPa 16.1 km WNW 11.1 km/h / 3.1 m/s - N/A   Clear
1:35 PM -1.0 °C -5.2 °C -5.0 °C 75% 1010.7 hPa 16.1 km WNW 13.0 km/h / 3.6 m/s - N/A   Clear
1:55 PM 0.0 °C -4.7 °C -5.0 °C 69% 1010.4 hPa 16.1 km West 16.7 km/h / 4.6 m/s - N/A   Clear
2:15 PM -1.0 °C -5.6 °C -5.0 °C 75% 1010.4 hPa 16.1 km West 14.8 km/h / 4.1 m/s - N/A   Clear
2:35 PM 0.0 °C -5.3 °C -5.0 °C 69% 1010.4 hPa 16.1 km West 20.4 km/h / 5.7 m/s - N/A   Clear
2:55 PM 0.0 °C -4.4 °C -5.0 °C 69% 1010.4 hPa 16.1 km WNW 14.8 km/h / 4.1 m/s - N/A   Scattered Clouds
3:15 PM 0.0 °C -4.7 °C -6.0 °C 64% 1010.4 hPa 16.1 km West 16.7 km/h / 4.6 m/s - N/A   Overcast
3:35 PM 1.0 °C -3.4 °C -4.0 °C 70% 1010.4 hPa 16.1 km West 16.7 km/h / 4.6 m/s - N/A   Overcast
3:55 PM 0.0 °C -4.0 °C -5.0 °C 69% 1010.4 hPa 16.1 km WNW 13.0 km/h / 3.6 m/s - N/A   Scattered Clouds
4:15 PM 1.0 °C -2.4 °C -6.0 °C 60% 1010.4 hPa 16.1 km WNW 11.1 km/h / 3.1 m/s - N/A   Clear
4:35 PM 0.0 °C -2.5 °C -6.0 °C 64% 1010.4 hPa 16.1 km WNW 7.4 km/h / 2.1 m/s - N/A   Clear
4:55 PM 0.0 °C -3.1 °C -6.0 °C 64% 1010.4 hPa - WNW 9.3 km/h / 2.6 m/s - N/A   Scattered Clouds
5:15 PM -1.0 °C -3.7 °C -6.0 °C 69% 1010.7 hPa - NW 7.4 km/h / 2.1 m/s - N/A   Scattered Clouds
5:35 PM -1.0 °C -3.0 °C -6.0 °C 69% 1010.7 hPa - WNW 5.6 km/h / 1.5 m/s - N/A   Clear
5:55 PM -1.0 °C - -6.0 °C 69% 1010.4 hPa - Calm Calm - N/A   Clear
6:15 PM -1.0 °C - -6.0 °C 69% 1010.7 hPa - Calm Calm - N/A   Clear
6:35 PM -2.0 °C -4.1 °C -6.0 °C 74% 1010.7 hPa - West 5.6 km/h / 1.5 m/s - N/A   Clear
6:55 PM -1.0 °C -3.0 °C -6.0 °C 69% 1011.1 hPa - West 5.6 km/h / 1.5 m/s - N/A   Clear
7:15 PM -1.0 °C -3.7 °C -6.0 °C 69% 1011.1 hPa - West 7.4 km/h / 2.1 m/s - N/A   Clear
7:35 PM -1.0 °C -4.3 °C -6.0 °C 69% 1011.4 hPa - West 9.3 km/h / 2.6 m/s - N/A   Clear
7:55 PM -1.0 °C -3.7 °C -6.0 °C 69% 1011.4 hPa - West 7.4 km/h / 2.1 m/s - N/A   Clear
8:15 PM -1.0 °C -3.7 °C -6.0 °C 69% 1011.4 hPa - West 7.4 km/h / 2.1 m/s - N/A   Clear
8:35 PM -1.0 °C -3.7 °C -6.0 °C 69% 1011.4 hPa - West 7.4 km/h / 2.1 m/s - N/A   Mostly Cloudy
8:55 PM 0.0 °C -3.1 °C -6.0 °C 64% 1011.4 hPa - West 9.3 km/h / 2.6 m/s - N/A   Overcast
9:15 PM 0.0 °C -3.1 °C -6.0 °C 64% 1011.4 hPa - West 9.3 km/h / 2.6 m/s - N/A   Overcast
9:35 PM 0.0 °C -2.5 °C -6.0 °C 64% 1011.4 hPa - West 7.4 km/h / 2.1 m/s - N/A   Overcast
9:55 PM 0.0 °C -3.1 °C -5.0 °C 69% 1011.7 hPa - West 9.3 km/h / 2.6 m/s - N/A   Overcast
10:15 PM 0.0 °C -3.6 °C -5.0 °C 69% 1011.7 hPa - West 11.1 km/h / 3.1 m/s - N/A   Overcast
10:35 PM 0.0 °C -3.6 °C -5.0 °C 69% 1011.7 hPa 16.1 km WSW 11.1 km/h / 3.1 m/s - N/A   Overcast
10:55 PM 1.0 °C -2.4 °C -4.0 °C 70% 1011.7 hPa 16.1 km WSW 11.1 km/h / 3.1 m/s - N/A   Overcast
11:15 PM 1.0 °C -2.8 °C -4.0 °C 70% 1011.7 hPa 16.1 km WSW 13.0 km/h / 3.6 m/s - N/A   Overcast
11:35 PM - - - N/A% 1011.4 hPa 16.1 km West 20.4 km/h / 5.7 m/s 29.6 km/h / 8.2 m/s N/A   Overcast
11:55 PM - - - N/A% 1011.7 hPa 16.1 km West 24.1 km/h / 6.7 m/s 31.5 km/h / 8.7 m/s N/A   Mostly Cloudy